sat.trackr.live / text

‹ back to catalog

QIANFAN-42

NORAD 62243 · 2024-232G

PAYLOAD ACTIVE UNKNOWN

§ Identity

Operator
Country
PRC
Launch date
2024-12-05
Launch site
TAISC
Launch vehicle
Mass (kg)
RCS (m²)

External: N2YO · Heavens-Above · Gunter

§ Orbital elements

Epoch: 2026-09-22T19:52:17.244768Z

Period
101.08 min
Inclination
89.0142°
Eccentricity
0.0013403
Mean motion
14.24650449 rev/d
Perigee alt
800.0 km
Apogee alt
819.3 km
Semi-major
7,187.8 km
B*
1.2407e-4
RAAN
5.0706°
Arg perigee
228.2763°
Mean anomaly
131.7284°
Rev number
14,181

§ Raw data

QIANFAN-421 62243U 24232G   26265.82797737  .00000303  00000+0  12407-3 0  99932 62243  89.0142   5.0706 0013403 228.2763 131.7284 14.24650449141812

JSON: /api/v1/satellites/62243 · /tle

For live sub-satellite position, see the globe view (requires WebGL).

§ Visibility from observer

Set your observer location to see the next 7 days of passes ≥ 10°. The values pass through the URL so the page stays shareable.

No JS? Fill the form by hand. The geolocation button needs JavaScript.